[[{"header":{"parameterUnit":"m.s-1","parameterCategory":1,"la1":30.2991,"la2":30.254,"lo1":-89.0895,"lo2":-89.0444,"dy":0.0017,"dx":0.0017,"nx":28,"ny":28,"refTime":"2023-04-02T21:00:00:Z","depth":0,"parameterNumber":2,"parameterNumberName":"U-component_of_WINDS"},"data":[0,0,0,0,0,0,0,0,0,0,0,0,0,0,0,0,0,0,0,0,0,0,0,0,0,0,0,0,0,0,0,0,0,0,0,0,0,0,0,0,0,0,0,0,0,0,0,0,0,0,0,0,0,0,0,0,0,0,-1.1256,-1.1255,0,-1.1199,-1.1199,-1.1198,-1.1156,-1.1156,-1.1155,-1.1155,-1.1095,-1.1093,-1.1092,0,0,0,0,0,0,0,0,0,0,0,0,0,-1.1325,-1.1324,-1.1256,-1.1255,-1.1254,-1.12,-1.1199,-1.1198,-1.1156,-1.1156,-1.1155,-1.1155,-1.1095,-1.1094,-1.1092,0,0,0,0,0,0,0,0,0,0,0,0,0,-1.1284,-1.1323,-1.1256,-1.1227,-1.1224,-1.12,-1.1199,-1.1198,-1.1156,-1.1156,-1.1155,-1.1154,-1.1096,-1.1094,-1.1092,-1.1091,0,0,-1.1086,-1.1085,0,0,0,0,0,0,0,0,-1.1286,-1.1282,-1.1232,-1.1229,-1.1225,-1.1184,-1.1201,-1.1162,-1.1156,-1.1182,-1.1155,-1.1154,-1.1125,-1.112,-1.1111,-1.1089,-1.1086,-1.1086,-1.1085,-1.1084,-1.1083,0,0,0,0,0,0,0,-1.1289,-1.1284,-1.1233,-1.1231,-1.1227,-1.1216,-1.121,-1.1193,-1.1157,-1.1179,-1.1176,-1.117,-1.1123,-1.1113,-1.1109,-1.1085,-1.1086,-1.1084,-1.1083,-1.1082,-1.1058,-1.1059,0,0,0,0,0,0,-1.1297,-1.1286,-1.1235,-1.1232,-1.1255,-1.1215,-1.1208,-1.1198,-1.1157,-1.115,-1.1171,-1.1169,-1.1116,-1.1112,-1.1107,-1.1103,-1.1084,-1.1082,-1.1081,-1.1058,-1.1059,-1.1059,0,0,0,0,0,0,-1.1299,-1.1293,-1.1237,-1.1258,-1.125,-1.1215,-1.1204,-1.1197,-1.1187,-1.1151,-1.1144,-1.1168,-1.1116,-1.111,-1.1096,-1.11,-1.1081,-1.108,-1.1057,-1.1058,-1.1059,-1.1095,0,0,0,0,0,0,-1.1301,-1.1294,-1.1294,-1.1259,-1.1249,-1.1228,-1.1204,-1.1196,-1.1184,-1.1181,-1.1146,-1.1139,-1.1115,-1.1099,-1.1094,-1.1097,-1.1078,-1.1057,-1.1058,-1.1059,-1.1093,-1.1097,-1.11,0,0,0,0,0,-1.1303,-1.1306,-1.1294,-1.1288,-1.1249,-1.1228,-1.1223,-1.1195,-1.1185,-1.1184,-1.1161,-1.114,-1.1101,-1.1098,-1.1092,-1.1095,-1.1056,-1.1057,-1.1058,-1.1092,-1.1096,-1.11,0,0,0,0,0,0,-1.1342,-1.1301,-1.1287,-1.1278,-1.1257,-1.1221,-1.1219,-1.1201,-1.1182,-1.1179,-1.1145,-1.1138,-1.1127,-1.111,-1.1107,-1.1092,-1.1076,-1.1076,-1.1103,-1.1107,-1.1111,-1.1115,-1.1077,0,0,0,0,0,-1.1349,-1.1337,-1.1301,-1.1297,-1.1287,-1.1255,-1.1245,-1.1226,-1.1202,-1.1193,-1.1168,-1.1146,-1.1128,-1.1117,-1.1098,-1.1091,-1.1082,-1.109,-1.1094,-1.1097,-1.1097,-1.109,-1.1093,-1.1063,-1.1063,-1.1063,0,0,-1.1364,-1.1341,-1.1335,-1.1304,-1.1286,-1.1272,-1.1248,-1.1235,-1.1225,-1.1191,-1.1176,-1.1157,-1.1129,-1.1118,-1.1112,-1.1103,-1.1103,-1.1098,-1.1101,-1.1099,-1.1092,-1.1095,-1.1097,-1.1063,-1.1063,-1.1063,0,0,-1.1385,-1.1366,-1.136,-1.1342,-1.1315,-1.1293,-1.1292,-1.1259,-1.1245,-1.123,-1.1204,-1.1191,-1.1161,-1.1142,-1.1129,-1.1143,-1.1123,-1.1138,-1.1155,-1.1149,-1.1152,-1.1154,-1.1158,-1.1159,-1.1138,-1.1138,-1.1138,0,-1.1407,-1.1387,-1.1359,-1.1348,-1.1335,-1.1305,-1.1298,-1.1281,-1.1249,-1.124,-1.1231,-1.1193,-1.1172,-1.1156,-1.1159,-1.115,-1.1146,-1.1141,-1.1154,-1.1156,-1.1157,-1.116,-1.1162,-1.114,-1.114,-1.114,-1.1139,0,-1.1415,-1.1402,-1.14,-1.137,-1.1357,-1.1348,-1.1318,-1.1308,-1.129,-1.127,-1.1254,-1.1228,-1.1204,-1.1199,-1.1181,-1.118,-1.1175,-1.1161,-1.1144,-1.1162,-1.1165,-1.1166,-1.1143,-1.1142,-1.1142,-1.1141,0,0,-1.1457,-1.1413,-1.1413,-1.1398,-1.1366,-1.1354,-1.1344,-1.1321,-1.1312,-1.1291,-1.128,-1.1256,-1.1242,-1.1227,-1.1207,-1.1202,-1.1213,-1.1188,-1.1187,-1.1193,-1.1209,-1.122,-1.1222,-1.1201,-1.1201,-1.1201,-1.1211,0,-1.1472,-1.1452,-1.1427,-1.1415,-1.1402,-1.1373,-1.1363,-1.1342,-1.1322,-1.1308,-1.1286,-1.1269,-1.1253,-1.1243,-1.1237,-1.1214,-1.1216,-1.1213,-1.1189,-1.1189,-1.1196,-1.1223,-1.1234,-1.1245,-1.1212,-1.1212,-1.1212,0,-1.1487,-1.1468,-1.1455,-1.1423,-1.1416,-1.1408,-1.1385,-1.1371,-1.1346,-1.1332,-1.1315,-1.1294,-1.128,-1.1266,-1.1246,-1.1244,-1.1233,-1.122,-1.122,-1.1216,-1.1201,-1.1218,-1.1247,-1.1249,-1.1214,-1.1214,-1.1213,0,-1.1517,-1.1489,-1.1477,-1.1466,-1.1429,-1.1424,-1.1408,-1.1382,-1.137,-1.1349,-1.134,-1.1318,-1.1306,-1.1289,-1.1261,-1.1254,-1.1244,-1.1228,-1.1231,-1.1232,-1.1229,-1.1229,-1.1256,-1.1224,-1.1224,-1.1224,-1.1224,0,-1.1536,-1.1529,-1.149,-1.1483,-1.1474,-1.1445,-1.1436,-1.1417,-1.1395,-1.1383,-1.1356,-1.1345,-1.131,-1.1295,-1.1274,-1.126,-1.1254,-1.1242,-1.1236,-1.1244,-1.1245,-1.1235,-1.1233,-1.1225,-1.1225,-1.1224,-1.1224,0,-1.1568,-1.1542,-1.1528,-1.1494,-1.1485,-1.148,-1.145,-1.1442,-1.1421,-1.1406,-1.1401,-1.1368,-1.1348,-1.132,-1.1292,-1.1277,-1.1266,-1.1257,-1.1275,-1.1271,-1.1275,-1.1275,-1.1295,-1.1296,-1.1265,-1.1266,-1.1266,0,-1.1581,-1.1575,-1.1541,-1.1531,-1.1517,-1.1502,-1.1489,-1.146,-1.1448,-1.1418,-1.1413,-1.1392,-1.1373,-1.1343,-1.1316,-1.1294,-1.1283,-1.1292,-1.128,-1.1287,-1.1282,-1.1282,-1.1281,-1.1295,-1.1295,-1.1296,-1.1296,0,-1.1607,-1.1594,-1.1577,-1.1556,-1.1542,-1.1524,-1.1504,-1.1497,-1.1464,-1.1451,-1.1431,-1.1417,-1.1388,-1.1367,-1.1341,-1.1324,-1.1304,-1.13,-1.1299,-1.1306,-1.1316,-1.131,-1.1281,-1.1299,-1.1299,-1.1299,-1.1299,-1.1298,-1.1629,-1.1622,-1.1597,-1.1579,-1.1561,-1.1543,-1.1533,-1.1512,-1.1495,-1.147,-1.1453,-1.1434,-1.1408,-1.1372,-1.1355,-1.1339,-1.1331,-1.133,-1.133,-1.133,-1.1332,-1.132,-1.1334,-1.1334,-1.1334,-1.1334,-1.1334,0,-1.1652,-1.1634,-1.1618,-1.1592,-1.1577,-1.1561,-1.1539,-1.1527,-1.1511,-1.1489,-1.1471,-1.1448,-1.1427,-1.1399,-1.1376,-1.1368,-1.1358,-1.1363,-1.1362,-1.1358,-1.1341,-1.1343,-1.1371,-1.1371,-1.1371,-1.1371,-1.1371,-1.1371,-1.1662,-1.1649,-1.1634,-1.1611,-1.1593,-1.1575,-1.1563,-1.1546,-1.1528,-1.1504,-1.1487,-1.1469,-1.1444,-1.1419,-1.1398,-1.1391,-1.1383,-1.139,-1.1379,-1.1363,-1.136,-1.1356,-1.1359,-1.1389,-1.1389,-1.1397,-1.1398,-1.1398]},{"header":{"parameterUnit":"m.s-1","parameterCategory":1,"la1":30.2991,"la2":30.254,"lo1":-89.0895,"lo2":-89.0444,"dy":0.0017,"dx":0.0017,"nx":28,"ny":28,"refTime":"2023-04-02T21:00:00:Z","depth":0,"parameterNumber":3,"parameterNumberName":"V-component_of_WINDS"},"data":[0,0,0,0,0,0,0,0,0,0,0,0,0,0,0,0,0,0,0,0,0,0,0,0,0,0,0,0,0,0,0,0,0,0,0,0,0,0,0,0,0,0,0,0,0,0,0,0,0,0,0,0,0,0,0,0,0,0,4.8408,4.8409,0,4.8492,4.8493,4.8493,4.8507,4.8507,4.8506,4.8505,4.8588,4.859,4.8593,0,0,0,0,0,0,0,0,0,0,0,0,0,4.8257,4.8259,4.8408,4.8409,4.841,4.8491,4.8493,4.8494,4.8507,4.8506,4.8506,4.8505,4.8587,4.859,4.8594,0,0,0,0,0,0,0,0,0,0,0,0,0,4.8329,4.826,4.8407,4.8427,4.8429,4.8491,4.8493,4.8494,4.8508,4.8506,4.8505,4.8504,4.8586,4.859,4.8594,4.8642,0,0,4.8607,4.8609,0,0,0,0,0,0,0,0,4.8325,4.8335,4.8423,4.8425,4.8428,4.8488,4.847,4.8544,4.8508,4.8478,4.8505,4.8504,4.8555,4.8562,4.858,4.8646,4.865,4.8608,4.861,4.8612,4.8613,0,0,0,0,0,0,0,4.832,4.8331,4.8441,4.8424,4.8427,4.843,4.8439,4.8484,4.8521,4.848,4.8481,4.8491,4.8556,4.8576,4.8582,4.8651,4.8607,4.8611,4.8614,4.8616,4.8762,4.8763,0,0,0,0,0,0,4.8312,4.8327,4.8438,4.8443,4.8373,4.8434,4.8444,4.847,4.8521,4.8528,4.8492,4.8492,4.8569,4.8577,4.8585,4.8646,4.8612,4.8616,4.8619,4.876,4.8762,4.8763,0,0,0,0,0,0,4.8309,4.8322,4.8435,4.8386,4.84,4.8437,4.8466,4.8472,4.8491,4.853,4.8536,4.8505,4.8568,4.8579,4.8628,4.8649,4.8618,4.8622,4.8759,4.8761,4.8763,4.8767,0,0,0,0,0,0,4.8305,4.8321,4.834,4.8386,4.8403,4.8478,4.8468,4.8474,4.8499,4.8499,4.8544,4.855,4.8568,4.8622,4.8633,4.8654,4.8625,4.8757,4.876,4.8762,4.8765,4.8768,4.8771,0,0,0,0,0,4.8299,4.8337,4.8341,4.8354,4.8428,4.8479,4.8488,4.8509,4.8501,4.852,4.8545,4.8549,4.8644,4.8627,4.8639,4.8662,4.8756,4.8759,4.8762,4.8763,4.8768,4.8771,0,0,0,0,0,0,4.829,4.8343,4.8348,4.8402,4.8436,4.8481,4.8506,4.8513,4.8549,4.8548,4.8571,4.8581,4.863,4.8651,4.863,4.8712,4.8699,4.8705,4.8696,4.8701,4.8704,4.8698,4.8629,0,0,0,0,0,4.8295,4.8333,4.8376,4.842,4.8437,4.8468,4.8491,4.8505,4.854,4.8554,4.8583,4.8616,4.8654,4.8679,4.8715,4.8768,4.8778,4.879,4.8793,4.8795,4.88,4.883,4.8836,4.8773,4.8773,4.8773,0,0,4.8304,4.8338,4.836,4.8419,4.8447,4.8485,4.848,4.852,4.8549,4.856,4.8609,4.8631,4.867,4.8722,4.8746,4.8741,4.882,4.8799,4.8801,4.8804,4.8834,4.884,4.8845,4.8775,4.8775,4.8774,0,0,4.8342,4.837,4.841,4.8439,4.8482,4.8503,4.8512,4.8557,4.8572,4.8622,4.8632,4.8665,4.873,4.8758,4.878,4.8829,4.8834,4.884,4.8858,4.8887,4.8892,4.8896,4.8915,4.8921,4.8844,4.8844,4.8844,0,4.8348,4.8407,4.843,4.847,4.8496,4.8509,4.855,4.8576,4.8628,4.8645,4.8638,4.8721,4.8748,4.8806,4.8819,4.8836,4.8848,4.8835,4.8889,4.8894,4.8899,4.8916,4.8923,4.8845,4.8845,4.8845,4.8845,0,4.8412,4.8453,4.848,4.8532,4.856,4.86,4.8629,4.8655,4.8666,4.8688,4.8738,4.8772,4.8816,4.8831,4.8841,4.8891,4.8887,4.8885,4.8873,4.8905,4.8922,4.8929,4.8846,4.8845,4.8845,4.8845,0,0,4.8446,4.8511,4.8521,4.8545,4.8594,4.8625,4.8666,4.8711,4.8733,4.8768,4.8803,4.8858,4.8857,4.8882,4.8896,4.8921,4.8959,4.8916,4.8917,4.8924,4.9017,4.9019,4.9027,4.8963,4.8964,4.8965,4.9014,0,4.849,4.8565,4.8587,4.8649,4.8687,4.8701,4.8736,4.8769,4.8791,4.8825,4.8848,4.8887,4.8882,4.8898,4.8924,4.8949,4.8978,4.8946,4.8995,4.8997,4.8986,4.9036,4.9038,4.9083,4.9021,4.9022,4.9023,0,4.8551,4.8589,4.8656,4.8701,4.8718,4.8749,4.8793,4.8826,4.8864,4.8877,4.8907,4.8919,4.8961,4.8947,4.9006,4.8984,4.9005,4.9021,4.9023,4.9029,4.9012,4.9043,4.9097,4.9104,4.9033,4.9033,4.9032,0,4.857,4.8638,4.8687,4.8707,4.8761,4.8783,4.8806,4.8843,4.8869,4.8906,4.8923,4.8964,4.8987,4.9018,4.9041,4.9028,4.9099,4.9086,4.9111,4.9111,4.9126,4.9125,4.9185,4.9138,4.9138,4.9138,4.9138,0,4.8617,4.8657,4.8697,4.8727,4.8773,4.8797,4.8842,4.8865,4.8898,4.8933,4.8946,4.8978,4.9006,4.9042,4.9059,4.9106,4.9116,4.9128,4.9133,4.9128,4.9126,4.9142,4.914,4.914,4.914,4.9139,4.9139,0,4.8646,4.8675,4.8729,4.8776,4.8788,4.882,4.8859,4.8889,4.8911,4.8955,4.8966,4.9,4.9043,4.9069,4.9122,4.9135,4.9187,4.9189,4.9174,4.9176,4.9201,4.9198,4.9274,4.9285,4.923,4.9231,4.9231,0,4.8675,4.8707,4.8757,4.8782,4.8806,4.8845,4.8872,4.8897,4.8925,4.8971,4.8995,4.9039,4.9076,4.9143,4.9172,4.9214,4.9218,4.9241,4.9224,4.9218,4.9219,4.9218,4.9221,4.9244,4.9245,4.9245,4.9246,0,4.8723,4.8736,4.8774,4.8819,4.8851,4.8886,4.8921,4.8941,4.8972,4.9002,4.9046,4.9075,4.9131,4.9174,4.9218,4.9241,4.9249,4.9251,4.9259,4.9255,4.9245,4.9252,4.9183,4.9249,4.9249,4.9249,4.9248,4.9248,4.8754,4.8783,4.8823,4.8866,4.8896,4.8929,4.8959,4.8986,4.9024,4.9072,4.9084,4.9131,4.9169,4.9229,4.9253,4.929,4.9286,4.9298,4.9301,4.9304,4.9305,4.9239,4.9298,4.9298,4.9298,4.9298,4.9298,0,4.8803,4.883,4.887,4.8919,4.8953,4.8958,4.8998,4.9026,4.9067,4.9102,4.9139,4.919,4.9233,4.9266,4.9309,4.9332,4.9337,4.9343,4.9342,4.9347,4.9305,4.9294,4.9339,4.9339,4.9339,4.9339,4.9338,4.9338,4.8833,4.8883,4.8901,4.8966,4.8992,4.9039,4.9062,4.9092,4.912,4.9178,4.9214,4.9235,4.927,4.9316,4.9355,4.9364,4.9379,4.9385,4.9394,4.9354,4.935,4.9346,4.9336,4.9388,4.9388,4.9433,4.9434,4.9434]}]]